Historique des mesures à Cassis (13260), France
Quotidien Résumé Janvier 12, 2018 Unités:  Métrique    US   Métrique/US
« Précédent (Jour)
Suivant (Jour) »
Quotidien Hebdomadaire Mensuel Annuel Période au choix
  Maximum: Minimum: Moyenne:
Température: TemperatureC °C 7.9 °C 9.7 °C
Point de rosée: DewpointC °C 1.2 °C 2.8 °C
Humidité: Humidity % 51 % 58 %
Vitesse du vent: 0 km/h 0 km/h 6 km/h
Rafales: 0 km/h - -
Vent:- - WNW
Pression: PressurehPa hPa 1010.4 hPa -
Précipitations: 0.0 mm    
Historical Graphs
 
 
Mesures pour : Janvier 12, 2018
Heure Temperature Point de rosée Pression Vent Vitesse du vent Rafales Humidité Pluie (par heure) Conditions
TemperatureC °C DewpointC °C PressurehPa hPa Calm     Humidity % HourlyPrecipMM mm SoftwareType W/m2
00:12 9.3 °C 3.1 °C 1010.4 hPa NNW 9.8 km/h 15 km/h 65 % 0.0 mm open2300-1.11 W/m2
01:12 8.4 °C 2.6 °C 1010.7 hPa WNW 16.9 km/h 16.9 km/h 67 % 0.0 mm open2300-1.11 W/m2
02:12 8.4 °C 2.2 °C 1010.7 hPa NNW 6.9 km/h 6.9 km/h 65 % 0.0 mm open2300-1.11 W/m2
03:12 8.9 °C 2.2 °C 1011.1 hPa WNW 10.9 km/h 16.3 km/h 63 % 0.0 mm open2300-1.11 W/m2
04:12 8.6 °C 1.9 °C 1011.4 hPa NW 3.4 km/h 7.6 km/h 63 % 0.0 mm open2300-1.11 W/m2
05:12 7.9 °C 1.9 °C 1011.7 hPa Calm   1.8 km/h 66 % 0.0 mm open2300-1.11 W/m2
07:12 8.6 °C 1.3 °C 1012.1 hPa NNW 13.2 km/h 16.3 km/h 60 % 0.0 mm open2300-1.11 W/m2
08:12 8.5 °C 1.2 °C 1012.8 hPa NNW 9.8 km/h 9.8 km/h 60 % 0.0 mm open2300-1.11 W/m2
09:12 9.5 °C 1.4 °C 1013.4 hPa Calm   10.9 km/h 57 % 0.0 mm open2300-1.11 W/m2
10:12 9.8 °C 1.7 °C 1014.1 hPa Calm   9.3 km/h 57 % 0.0 mm open2300-1.11 W/m2
11:12 10.9 °C 2.2 °C 1014.4 hPa NNE 1.8 km/h 7.6 km/h 55 % 0.0 mm open2300-1.11 W/m2
12:12 12.1 °C 2.2 °C 1014.1 hPa Calm   4.7 km/h 51 % 0.0 mm open2300-1.11 W/m2
13:12 12.3 °C 3.7 °C 1014.1 hPa WNW 26.7 km/h 26.7 km/h 56 % 0.0 mm open2300-1.11 W/m2
14:12 12.9 °C 4.0 °C 1014.1 hPa West 10.3 km/h 10.3 km/h 55 % 0.0 mm open2300-1.11 W/m2
15:12 13.2 °C 4.3 °C 1014.1 hPa NNW 10.3 km/h 21.6 km/h 55 % 0.0 mm open2300-1.11 W/m2
17:12 12.1 °C 4.6 °C 1015.1 hPa West 4.7 km/h 4.7 km/h 60 % 0.0 mm open2300-1.11 W/m2
18:12 11.3 °C 4.3 °C 1015.1 hPa WNW 1.8 km/h 2.9 km/h 62 % 0.0 mm open2300-1.11 W/m2
19:12 10.9 °C 4.1 °C 1015.8 hPa Calm     63 % 0.0 mm open2300-1.11 W/m2
20:12 10.8 °C 4.0 °C 1015.8 hPa Calm     63 % 0.0 mm open2300-1.11 W/m2
21:12 10.4 °C 3.8 °C 1016.5 hPa NNW 9.8 km/h 9.8 km/h 64 % 0.0 mm open2300-1.11 W/m2
22:12 9.9 °C 3.6 °C 1016.8 hPa Calm     65 % 0.0 mm open2300-1.11 W/m2
23:12 9.4 °C 3.3 °C 1017.2 hPa Calm     66 % 0.0 mm open2300-1.11 W/m2
Observations météo à CASSIS
WU-History script by Weather Underground - 1 mb